Location: Perryvale
(54.4667°N, 113.3833°W)
Time: 20:07:21
(UTC+00:00)

Vanguard 1 Rocket - Pass Details

Date: 22 May 2024
Orbit: 649 x 4220 km, 34.3° (Epoch: 19 June)

Event Time Altitude Azimuth Distance (km) Brightness Sun altitude
Rises 21:09:42 0° 261° (W) 6,227 12.1 51.3°
Reaches altitude 10° 21:16:27 10° 244° (WSW) 4,397 11.7 50.6°
Maximum altitude 21:22:08 16° 213° (SSW) 3,238 11.3 50.1°
Drops below altitude 10° 21:26:26 10° 179° (S) 3,118 10.7 49.7°
Sets 21:29:55 0° 156° (SSE) 3,657 10.7 49.3°
